This is the latest recevied weather packets stored in our database for station/object IT9FDP-13. If no packets are shown the sender has not sent any weather packets the latest 10 day(s).
| Time | Temp. | Humidity | Pressure | Rain* | Wind** | Luminosity | Snow |
|---|---|---|---|---|---|---|---|
| 1777667742 | 15.56° C | 60% | 1018.7 hPa | 0 mm | - | - | - |
| 1777664440 | 15.56° C | 59% | 1018.3 hPa | 0 mm | - | - | - |
| 1777631746 | 17.22° C | 75% | 1017.8 hPa | 0 mm | - | - | - |
| 1777630521 | 16.67° C | 77% | 1017.7 hPa | 0 mm | - | - | - |
| 1777629921 | 16.67° C | 77% | 1017.7 hPa | 0 mm | - | - | - |
| 1777628127 | 16.11° C | 78% | 1017.4 hPa | 0 mm | - | - | - |
| 1777627217 | 16.11° C | 78% | 1017.6 hPa | 0 mm | - | - | - |
| 1777626319 | 16.11° C | 78% | 1017.4 hPa | 0 mm | - | - | - |
| 1777624824 | 16.11° C | 79% | 1017.3 hPa | 0 mm | - | - | - |
| 1777624523 | 16.11° C | 79% | 1017.3 hPa | 0 mm | - | - | - |
| 1777624230 | 16.11° C | 79% | 1017.3 hPa | 0 mm | - | - | - |
| 1777622427 | 16.11° C | 80% | 1016.7 hPa | 0 mm | - | - | - |
| 1777621517 | 16.11° C | 79% | 1016.4 hPa | 0 mm | - | - | - |
| 1777620325 | 16.67° C | 80% | 1016.2 hPa | 0 mm | - | - | - |
| 1777619417 | 16.11° C | 80% | 1016.1 hPa | 0 mm | - | - | - |
| 1777619119 | 16.11° C | 80% | 1016.2 hPa | 0 mm | - | - | - |
| 1777617319 | 15.56° C | 80% | 1016.2 hPa | 0 mm | - | - | - |
| 1777616418 | 15.56° C | 80% | 1015.8 hPa | 0 mm | - | - | - |
| 1777613127 | 15.56° C | 80% | 1015.5 hPa | 0 mm | - | - | - |
| 1777612816 | 15.56° C | 80% | 1015.5 hPa | 0 mm | - | - | - |
| 1777612517 | 15.56° C | 80% | 1015.5 hPa | 0 mm | - | - | - |
| 1777612224 | 16.11° C | 80% | 1015.5 hPa | 0 mm | - | - | - |
| 1777611917 | 16.11° C | 80% | 1015.4 hPa | 0 mm | - | - | - |
| 1777608348 | 16.67° C | 79% | 1015 hPa | 0 mm | - | - | - |
| 1777605620 | 16.67° C | 79% | 1015.1 hPa | 0 mm | - | - | - |
* Rain latest hour (hover to see other rain measurements)
** Current wind speed in m/s (hover to see current wind gust speed)